Year,Month,Day,Hour,Minute,Value (Times are PST for temperature in C)
2016,06,14,00,00,10.70
2016,06,14,00,01,10.70
2016,06,14,00,02,10.70
2016,06,14,00,03,10.70
2016,06,14,00,04,10.70
2016,06,14,00,05,10.70
2016,06,14,00,06,10.70
2016,06,14,00,07,10.70
2016,06,14,00,08,10.70
2016,06,14,00,09,10.70
2016,06,14,00,10,10.70
2016,06,14,00,11,10.70
2016,06,14,00,12,10.70
2016,06,14,00,13,10.70
2016,06,14,00,14,10.70
2016,06,14,00,15,10.70
2016,06,14,00,16,10.70
2016,06,14,00,17,10.70
2016,06,14,00,18,10.70
2016,06,14,00,19,10.70
2016,06,14,00,20,10.70
2016,06,14,00,21,10.70
2016,06,14,00,22,10.70
2016,06,14,00,23,10.70
2016,06,14,00,24,10.70
2016,06,14,00,25,10.70
2016,06,14,00,26,10.70
2016,06,14,00,27,10.70
2016,06,14,00,28,10.70
2016,06,14,00,29,10.60
2016,06,14,00,30,10.60
2016,06,14,00,31,10.60
2016,06,14,00,32,10.60
2016,06,14,00,33,10.60
2016,06,14,00,34,10.60
2016,06,14,00,35,10.60
2016,06,14,00,36,10.60
2016,06,14,00,37,10.60
2016,06,14,00,38,10.60
2016,06,14,00,39,10.50
2016,06,14,00,40,10.50
2016,06,14,00,41,10.50
2016,06,14,00,42,10.50
2016,06,14,00,43,10.50
2016,06,14,00,44,10.40
2016,06,14,00,45,10.40
2016,06,14,00,46,10.40
2016,06,14,00,47,10.40
2016,06,14,00,48,10.40
2016,06,14,00,49,10.40
2016,06,14,00,50,10.40
2016,06,14,00,51,10.40
2016,06,14,00,52,10.30
2016,06,14,00,53,10.30
2016,06,14,00,54,10.30
2016,06,14,00,55,10.30
2016,06,14,00,56,10.30
2016,06,14,00,57,10.30
2016,06,14,00,58,10.20
2016,06,14,00,59,10.20
2016,06,14,01,00,10.20
2016,06,14,01,01,10.20
2016,06,14,01,02,10.20
2016,06,14,01,03,10.20
2016,06,14,01,04,10.20
2016,06,14,01,05,10.20
2016,06,14,01,06,10.20
2016,06,14,01,07,10.20
2016,06,14,01,08,10.10
2016,06,14,01,09,10.10
2016,06,14,01,10,10.10
2016,06,14,01,11,10.10
2016,06,14,01,12,10.10
2016,06,14,01,13,10.10
2016,06,14,01,14,10.10
2016,06,14,01,15,10.10
2016,06,14,01,16,10.10
2016,06,14,01,17,10.10
2016,06,14,01,18,10.00
2016,06,14,01,19,10.00
2016,06,14,01,20,10.00
2016,06,14,01,21,10.00
2016,06,14,01,22,10.00
2016,06,14,01,23,10.00
2016,06,14,01,24,10.00
2016,06,14,01,25,9.90
2016,06,14,01,26,9.90
2016,06,14,01,27,9.90
2016,06,14,01,28,9.90
2016,06,14,01,29,9.90
2016,06,14,01,30,9.90
2016,06,14,01,31,9.90
2016,06,14,01,32,9.90
2016,06,14,01,33,9.90
2016,06,14,01,34,9.90
2016,06,14,01,35,9.90
2016,06,14,01,36,9.80
2016,06,14,01,37,9.80
2016,06,14,01,38,9.80
2016,06,14,01,39,9.80
2016,06,14,01,40,9.80
2016,06,14,01,41,9.80
2016,06,14,01,42,9.80
2016,06,14,01,43,9.80
2016,06,14,01,44,9.80
2016,06,14,01,45,9.80
2016,06,14,01,46,9.80
2016,06,14,01,47,9.80
2016,06,14,01,48,9.70
2016,06,14,01,49,9.80
2016,06,14,01,50,9.70
2016,06,14,01,51,9.70
2016,06,14,01,52,9.70
2016,06,14,01,53,9.70
2016,06,14,01,54,9.70
2016,06,14,01,55,9.70
2016,06,14,01,56,9.70
2016,06,14,01,57,9.70
2016,06,14,01,58,9.70
2016,06,14,01,59,9.70
2016,06,14,02,00,9.70
2016,06,14,02,01,9.70
2016,06,14,02,02,9.70
2016,06,14,02,03,9.70
2016,06,14,02,04,9.70
2016,06,14,02,05,9.70
2016,06,14,02,06,9.70
2016,06,14,02,07,9.70
2016,06,14,02,08,9.70
2016,06,14,02,09,9.70
2016,06,14,02,10,9.70
2016,06,14,02,11,9.70
2016,06,14,02,12,9.70
2016,06,14,02,13,9.70
2016,06,14,02,14,9.70
2016,06,14,02,15,9.70
2016,06,14,02,16,9.70
2016,06,14,02,17,9.70
2016,06,14,02,18,9.70
2016,06,14,02,19,9.70
2016,06,14,02,20,9.70
2016,06,14,02,21,9.70
2016,06,14,02,22,9.70
2016,06,14,02,23,9.70
2016,06,14,02,24,9.70
2016,06,14,02,25,9.70
2016,06,14,02,26,9.70
2016,06,14,02,27,9.70
2016,06,14,02,28,9.60
2016,06,14,02,29,9.60
2016,06,14,02,30,9.60
2016,06,14,02,31,9.60
2016,06,14,02,32,9.60
2016,06,14,02,33,9.60
2016,06,14,02,34,9.60
2016,06,14,02,35,9.60
2016,06,14,02,36,9.60
2016,06,14,02,37,9.60
2016,06,14,02,38,9.60
2016,06,14,02,39,9.60
2016,06,14,02,40,9.60
2016,06,14,02,41,9.60
2016,06,14,02,42,9.60
2016,06,14,02,43,9.60
2016,06,14,02,44,9.60
2016,06,14,02,45,9.60
2016,06,14,02,46,9.60
2016,06,14,02,47,9.60
2016,06,14,02,48,9.60
2016,06,14,02,49,9.60
2016,06,14,02,50,9.60
2016,06,14,02,51,9.50
2016,06,14,02,52,9.60
2016,06,14,02,53,9.60
2016,06,14,02,54,9.60
2016,06,14,02,55,9.60
2016,06,14,02,56,9.60
2016,06,14,02,57,9.60
2016,06,14,02,58,9.60
2016,06,14,02,59,9.60
2016,06,14,03,00,9.60
2016,06,14,03,01,9.60
2016,06,14,03,02,9.60
2016,06,14,03,03,9.60
2016,06,14,03,04,9.60
2016,06,14,03,05,9.60
2016,06,14,03,06,9.60
2016,06,14,03,07,9.60
2016,06,14,03,08,9.60
2016,06,14,03,10,9.60
2016,06,14,03,11,9.60
2016,06,14,03,13,9.60
2016,06,14,03,14,9.60
2016,06,14,03,15,9.60
2016,06,14,03,16,9.60
2016,06,14,03,17,9.60
2016,06,14,03,18,9.60
2016,06,14,03,19,9.60
2016,06,14,03,20,9.60
2016,06,14,03,21,9.60
2016,06,14,03,22,9.60
2016,06,14,03,23,9.60
2016,06,14,03,24,9.60
2016,06,14,03,25,9.60
2016,06,14,03,26,9.60
2016,06,14,03,27,9.60
2016,06,14,03,28,9.70
2016,06,14,03,29,9.70
2016,06,14,03,30,9.70
2016,06,14,03,31,9.70
2016,06,14,03,32,9.70
2016,06,14,03,33,9.70
2016,06,14,03,34,9.70
2016,06,14,03,35,9.70
2016,06,14,03,36,9.70
2016,06,14,03,37,9.70
2016,06,14,03,38,9.70
2016,06,14,03,39,9.70
2016,06,14,03,40,9.70
2016,06,14,03,41,9.70
2016,06,14,03,42,9.70
2016,06,14,03,43,9.70
2016,06,14,03,44,9.80
2016,06,14,03,45,9.80
2016,06,14,03,46,9.80
2016,06,14,03,47,9.80
2016,06,14,03,48,9.80
2016,06,14,03,49,9.80
2016,06,14,03,50,9.80
2016,06,14,03,51,9.80
2016,06,14,03,52,9.70
2016,06,14,03,53,9.70
2016,06,14,03,54,9.70
2016,06,14,03,55,9.60
2016,06,14,03,56,9.60
2016,06,14,03,57,9.50
2016,06,14,03,58,9.40
2016,06,14,03,59,9.40
2016,06,14,04,00,9.40
2016,06,14,04,01,9.30
2016,06,14,04,02,9.30
2016,06,14,04,03,9.30
2016,06,14,04,04,9.30
2016,06,14,04,06,9.20
2016,06,14,04,07,9.20
2016,06,14,04,08,9.20
2016,06,14,04,09,9.20
2016,06,14,04,10,9.20
2016,06,14,04,12,9.20
2016,06,14,04,13,9.20
2016,06,14,04,14,9.10
2016,06,14,04,15,9.10
2016,06,14,04,16,9.10
2016,06,14,04,17,9.10
2016,06,14,04,18,9.10
2016,06,14,04,19,9.10
2016,06,14,04,20,9.10
2016,06,14,04,21,9.10
2016,06,14,04,22,9.10
2016,06,14,04,23,9.10
2016,06,14,04,24,9.10
2016,06,14,04,25,9.10
2016,06,14,04,26,9.00
2016,06,14,04,27,9.00
2016,06,14,04,28,9.00
2016,06,14,04,29,9.00
2016,06,14,04,30,9.00
2016,06,14,04,31,9.00
2016,06,14,04,32,9.00
2016,06,14,04,33,8.90
2016,06,14,04,34,8.90
2016,06,14,04,35,8.90
2016,06,14,04,36,8.90
2016,06,14,04,37,8.90
2016,06,14,04,38,9.00
2016,06,14,04,39,9.00
2016,06,14,04,40,9.00
2016,06,14,04,41,9.00
2016,06,14,04,42,9.00
2016,06,14,04,43,9.00
2016,06,14,04,44,9.00
2016,06,14,04,45,9.00
2016,06,14,04,46,8.90
2016,06,14,04,47,8.90
2016,06,14,04,48,8.90
2016,06,14,04,49,8.90
2016,06,14,04,50,8.90
2016,06,14,04,51,8.90
2016,06,14,04,52,8.90
2016,06,14,04,53,8.90
2016,06,14,04,54,8.90
2016,06,14,04,55,8.90
2016,06,14,04,56,8.90
2016,06,14,04,57,8.80
2016,06,14,04,58,8.90
2016,06,14,04,59,8.80
2016,06,14,05,00,8.80
2016,06,14,05,01,8.80
2016,06,14,05,02,8.80
2016,06,14,05,03,8.80
2016,06,14,05,04,8.80
2016,06,14,05,05,8.80
2016,06,14,05,06,8.80
2016,06,14,05,07,8.80
2016,06,14,05,08,8.80
2016,06,14,05,09,8.80
2016,06,14,05,10,8.80
2016,06,14,05,11,8.80
2016,06,14,05,12,8.80
2016,06,14,05,13,8.80
2016,06,14,05,14,8.80
2016,06,14,05,15,8.80
2016,06,14,05,16,8.80
2016,06,14,05,17,8.80
2016,06,14,05,18,8.80
2016,06,14,05,19,8.80
2016,06,14,05,20,8.80
2016,06,14,05,21,8.80
2016,06,14,05,22,8.80
2016,06,14,05,23,8.80
2016,06,14,05,24,8.80
2016,06,14,05,25,8.80
2016,06,14,05,26,8.80
2016,06,14,05,27,8.80
2016,06,14,05,28,8.80
2016,06,14,05,29,8.80
2016,06,14,05,30,8.80
2016,06,14,05,31,8.80
2016,06,14,05,32,8.80
2016,06,14,05,33,8.80
2016,06,14,05,34,8.80
2016,06,14,05,35,8.80
2016,06,14,05,36,8.80
2016,06,14,05,37,8.90
2016,06,14,05,38,8.90
2016,06,14,05,39,8.90
2016,06,14,05,40,8.90
2016,06,14,05,41,8.90
2016,06,14,05,42,8.90
2016,06,14,05,43,8.90
2016,06,14,05,44,8.90
2016,06,14,05,45,8.90
2016,06,14,05,46,8.90
2016,06,14,05,47,8.90
2016,06,14,05,48,8.90
2016,06,14,05,49,9.00
2016,06,14,05,50,9.00
2016,06,14,05,51,9.00
2016,06,14,05,52,9.00
2016,06,14,05,53,9.00
2016,06,14,05,54,9.00
2016,06,14,05,55,9.00
2016,06,14,05,56,9.00
2016,06,14,05,57,9.00
2016,06,14,05,58,9.10
2016,06,14,05,59,9.10
2016,06,14,06,00,9.10
2016,06,14,06,01,9.10
2016,06,14,06,02,9.10
2016,06,14,06,03,9.10
2016,06,14,06,04,9.10
2016,06,14,06,05,9.10
2016,06,14,06,06,9.10
2016,06,14,06,08,9.10
2016,06,14,06,09,9.10
2016,06,14,06,10,9.00
2016,06,14,06,11,9.10
2016,06,14,06,12,9.00
2016,06,14,06,13,9.00
2016,06,14,06,14,8.90
2016,06,14,06,15,8.90
2016,06,14,06,16,8.90
2016,06,14,06,17,8.90
2016,06,14,06,18,8.90
2016,06,14,06,19,8.90
2016,06,14,06,20,8.90
2016,06,14,06,21,8.90
2016,06,14,06,22,8.90
2016,06,14,06,23,8.90
2016,06,14,06,24,8.90
2016,06,14,06,25,8.90
2016,06,14,06,26,8.80
2016,06,14,06,27,8.80
2016,06,14,06,28,8.80
2016,06,14,06,29,8.80
2016,06,14,06,30,8.80
2016,06,14,06,31,8.80
2016,06,14,06,32,8.80
2016,06,14,06,33,8.80
2016,06,14,06,34,8.80
2016,06,14,06,35,8.80
2016,06,14,06,36,8.80
2016,06,14,06,37,8.80
2016,06,14,06,38,8.90
2016,06,14,06,39,8.80
2016,06,14,06,40,8.90
2016,06,14,06,41,8.90
2016,06,14,06,42,8.90
2016,06,14,06,43,8.90
2016,06,14,06,44,8.90
2016,06,14,06,45,8.90
2016,06,14,06,46,8.90
2016,06,14,06,47,8.90
2016,06,14,06,48,9.00
2016,06,14,06,49,9.00
2016,06,14,06,50,9.10
2016,06,14,06,51,9.10
2016,06,14,06,52,9.10
2016,06,14,06,53,9.20
2016,06,14,06,54,9.20
2016,06,14,06,55,9.30
2016,06,14,06,56,9.30
2016,06,14,06,57,9.30
2016,06,14,06,58,9.40
2016,06,14,06,59,9.40
2016,06,14,07,00,9.50
2016,06,14,07,01,9.60
2016,06,14,07,02,9.60
2016,06,14,07,03,9.60
2016,06,14,07,04,9.60
2016,06,14,07,05,9.70
2016,06,14,07,06,9.70
2016,06,14,07,07,9.70
2016,06,14,07,08,9.70
2016,06,14,07,09,9.70
2016,06,14,07,10,9.70
2016,06,14,07,11,9.70
2016,06,14,07,12,9.70
2016,06,14,07,13,9.80
2016,06,14,07,14,9.80
2016,06,14,07,15,9.80
2016,06,14,07,16,9.80
2016,06,14,07,17,9.80
2016,06,14,07,18,9.80
2016,06,14,07,19,9.80
2016,06,14,07,20,9.90
2016,06,14,07,21,9.90
2016,06,14,07,22,9.90
2016,06,14,07,23,9.90
2016,06,14,07,24,9.90
2016,06,14,07,25,10.00
2016,06,14,07,26,10.00
2016,06,14,07,27,10.10
2016,06,14,07,28,10.10
2016,06,14,07,29,10.10
2016,06,14,07,30,10.10
2016,06,14,07,31,10.20
2016,06,14,07,32,10.20
2016,06,14,07,33,10.20
2016,06,14,07,34,10.20
2016,06,14,07,36,10.30
2016,06,14,07,37,10.30
2016,06,14,07,38,10.30
2016,06,14,07,39,10.30
2016,06,14,07,40,10.30
2016,06,14,07,41,10.30
2016,06,14,07,42,10.30
2016,06,14,07,43,10.30
2016,06,14,07,44,10.40
2016,06,14,07,45,10.40
2016,06,14,07,46,10.40
2016,06,14,07,47,10.40
2016,06,14,07,48,10.40
2016,06,14,07,49,10.40
2016,06,14,07,50,10.40
2016,06,14,07,51,10.40
2016,06,14,07,52,10.40
2016,06,14,07,53,10.40
2016,06,14,07,54,10.40
2016,06,14,07,55,10.40
2016,06,14,07,56,10.40
2016,06,14,07,57,10.40
2016,06,14,07,58,10.50
2016,06,14,07,59,10.50
2016,06,14,08,00,10.50
2016,06,14,08,01,10.50
2016,06,14,08,02,10.60
2016,06,14,08,03,10.60
2016,06,14,08,04,10.60
2016,06,14,08,05,10.60
2016,06,14,08,06,10.60
2016,06,14,08,07,10.60
2016,06,14,08,08,10.70
2016,06,14,08,09,10.70
2016,06,14,08,10,10.70
2016,06,14,08,11,10.70
2016,06,14,08,12,10.70
2016,06,14,08,13,10.70
2016,06,14,08,14,10.70
2016,06,14,08,15,10.70
2016,06,14,08,16,10.70
2016,06,14,08,17,10.80
2016,06,14,08,18,10.80
2016,06,14,08,19,10.80
2016,06,14,08,20,10.80
2016,06,14,08,21,10.80
2016,06,14,08,22,10.80
2016,06,14,08,23,10.80
2016,06,14,08,24,10.80
2016,06,14,08,25,10.80
2016,06,14,08,26,10.90
2016,06,14,08,27,10.90
2016,06,14,08,28,10.90
2016,06,14,08,29,10.90
2016,06,14,08,30,10.90
2016,06,14,08,31,10.90
2016,06,14,08,32,10.90
2016,06,14,08,33,11.00
2016,06,14,08,34,11.00
2016,06,14,08,35,11.00
2016,06,14,08,36,11.00
2016,06,14,08,37,11.00
2016,06,14,08,38,11.10
2016,06,14,08,39,11.10
2016,06,14,08,40,11.10
2016,06,14,08,41,11.10
2016,06,14,08,42,11.10
2016,06,14,08,43,11.10
2016,06,14,08,44,11.10
2016,06,14,08,45,11.10
2016,06,14,08,46,11.10
2016,06,14,08,47,11.10
2016,06,14,08,48,11.10
2016,06,14,08,49,11.10
2016,06,14,08,50,11.10
2016,06,14,08,51,11.10
2016,06,14,08,52,11.10
2016,06,14,08,53,11.10
2016,06,14,08,54,11.10
2016,06,14,08,55,11.10
2016,06,14,08,56,11.10
2016,06,14,08,57,11.10
2016,06,14,08,58,11.10
2016,06,14,08,59,11.10
2016,06,14,09,00,11.00
2016,06,14,09,01,11.00
2016,06,14,09,02,10.90
2016,06,14,09,03,11.00
2016,06,14,09,04,11.00
2016,06,14,09,05,11.00
2016,06,14,09,06,11.00
2016,06,14,09,07,10.90
2016,06,14,09,08,11.00
2016,06,14,09,09,11.00
2016,06,14,09,10,11.00
2016,06,14,09,11,11.00
2016,06,14,09,12,11.00
2016,06,14,09,13,11.00
2016,06,14,09,14,11.00
2016,06,14,09,15,11.00
2016,06,14,09,16,11.00
2016,06,14,09,17,11.00
2016,06,14,09,18,11.00
2016,06,14,09,19,11.00
2016,06,14,09,20,10.90
2016,06,14,09,21,10.90
2016,06,14,09,22,10.90
2016,06,14,09,23,11.00
2016,06,14,09,24,11.00
2016,06,14,09,25,11.00
2016,06,14,09,26,11.00
2016,06,14,09,27,11.10
2016,06,14,09,28,11.10
2016,06,14,09,29,11.10
2016,06,14,09,30,11.20
2016,06,14,09,31,11.20
2016,06,14,09,32,11.20
2016,06,14,09,33,11.30
2016,06,14,09,34,11.30
2016,06,14,09,35,11.30
2016,06,14,09,36,11.30
2016,06,14,09,37,11.30
2016,06,14,09,38,11.40
2016,06,14,09,39,11.40
2016,06,14,09,40,11.40
2016,06,14,09,41,11.40
2016,06,14,09,42,11.50
2016,06,14,09,43,11.50
2016,06,14,09,44,11.60
2016,06,14,09,45,11.60
2016,06,14,09,46,11.60
2016,06,14,09,47,11.70
2016,06,14,09,48,11.70
2016,06,14,09,49,11.70
2016,06,14,09,50,11.70
2016,06,14,09,51,11.70
2016,06,14,09,52,11.80
2016,06,14,09,53,11.80
2016,06,14,09,54,11.80
2016,06,14,09,55,11.90
2016,06,14,09,56,11.90
2016,06,14,09,57,11.90
2016,06,14,09,58,11.90
2016,06,14,09,59,11.90
2016,06,14,10,00,11.90
2016,06,14,10,01,11.90
2016,06,14,10,02,11.80
2016,06,14,10,03,11.80
2016,06,14,10,04,11.80
2016,06,14,10,05,11.80
2016,06,14,10,06,11.70
2016,06,14,10,07,11.70
2016,06,14,10,08,11.70
2016,06,14,10,09,11.70
2016,06,14,10,10,11.70
2016,06,14,10,11,11.70
2016,06,14,10,12,11.70
2016,06,14,10,13,11.70
2016,06,14,10,14,11.70
2016,06,14,10,15,11.60
2016,06,14,10,16,11.60
2016,06,14,10,17,11.60
2016,06,14,10,18,11.50
2016,06,14,10,19,11.40
2016,06,14,10,20,11.40
2016,06,14,10,21,11.40
2016,06,14,10,22,11.40
2016,06,14,10,23,11.40
2016,06,14,10,24,11.40
2016,06,14,10,25,11.40
2016,06,14,10,26,11.50
2016,06,14,10,27,11.60
2016,06,14,10,28,11.60
2016,06,14,10,29,11.60
2016,06,14,10,30,11.70
2016,06,14,10,31,11.70
2016,06,14,10,32,11.70
2016,06,14,10,33,11.70
2016,06,14,10,34,11.80
2016,06,14,10,35,11.80
2016,06,14,10,36,11.90
2016,06,14,10,37,11.90
2016,06,14,10,38,12.00
2016,06,14,10,39,12.20
2016,06,14,10,46,12.90
2016,06,14,10,49,13.20
2016,06,14,10,50,13.30
2016,06,14,10,51,13.40
2016,06,14,10,53,13.50
2016,06,14,10,54,13.50
2016,06,14,10,55,13.50
2016,06,14,10,56,13.50
2016,06,14,10,57,13.40
2016,06,14,10,58,13.40
2016,06,14,10,59,13.40
2016,06,14,11,00,13.40
2016,06,14,11,01,13.40
2016,06,14,11,02,13.30
2016,06,14,11,03,13.30
2016,06,14,11,04,13.30
2016,06,14,11,05,13.30
2016,06,14,11,07,13.40
2016,06,14,11,08,13.40
2016,06,14,11,09,13.40
2016,06,14,11,11,13.40
2016,06,14,11,12,13.40
2016,06,14,11,13,13.40
2016,06,14,11,14,13.50
2016,06,14,11,15,13.60
2016,06,14,11,16,13.60
2016,06,14,11,17,13.70
2016,06,14,11,18,13.70
2016,06,14,11,19,13.80
2016,06,14,11,20,13.80
2016,06,14,11,21,13.80
2016,06,14,11,22,13.70
2016,06,14,11,23,13.70
2016,06,14,11,24,13.70
2016,06,14,11,25,13.70
2016,06,14,11,26,13.70
2016,06,14,11,27,13.60
2016,06,14,11,28,13.60
2016,06,14,11,29,13.40
2016,06,14,11,30,13.30
2016,06,14,11,31,13.30
2016,06,14,11,32,13.20
2016,06,14,11,33,13.20
2016,06,14,11,34,13.10
2016,06,14,11,35,13.00
2016,06,14,11,36,13.00
2016,06,14,11,37,12.90
2016,06,14,11,38,12.90
2016,06,14,11,39,12.90
2016,06,14,11,40,12.90
2016,06,14,11,41,12.90
2016,06,14,11,42,12.90
2016,06,14,11,43,12.90
2016,06,14,11,44,12.90
2016,06,14,11,45,12.90
2016,06,14,11,46,12.90
2016,06,14,11,47,12.90
2016,06,14,11,48,12.90
2016,06,14,11,49,12.90
2016,06,14,11,50,12.80
2016,06,14,11,51,12.80
2016,06,14,11,52,12.80
2016,06,14,11,53,12.80
2016,06,14,11,54,12.80
2016,06,14,11,55,12.80
2016,06,14,11,56,12.80
2016,06,14,11,57,12.80
2016,06,14,11,58,12.70
2016,06,14,11,59,12.70
2016,06,14,12,00,12.70
2016,06,14,12,01,12.70
2016,06,14,12,02,12.70
2016,06,14,12,03,12.60
2016,06,14,12,04,12.60
2016,06,14,12,05,12.60
2016,06,14,12,06,12.60
2016,06,14,12,07,12.60
2016,06,14,12,08,12.60
2016,06,14,12,09,12.60
2016,06,14,12,10,12.60
2016,06,14,12,11,12.60
2016,06,14,12,12,12.60
2016,06,14,12,13,12.60
2016,06,14,12,14,12.60
2016,06,14,12,15,12.60
2016,06,14,12,16,12.70
2016,06,14,12,17,12.70
2016,06,14,12,18,12.80
2016,06,14,12,19,12.80
2016,06,14,12,20,12.90
2016,06,14,12,21,13.00
2016,06,14,12,22,13.10
2016,06,14,12,23,13.20
2016,06,14,12,24,13.20
2016,06,14,12,25,13.30
2016,06,14,12,26,13.30
2016,06,14,12,27,13.40
2016,06,14,12,28,13.50
2016,06,14,12,29,13.60
2016,06,14,12,30,13.80
2016,06,14,12,31,13.90
2016,06,14,12,32,14.00
2016,06,14,12,33,14.10
2016,06,14,12,34,14.20
2016,06,14,12,35,14.30
2016,06,14,12,36,14.40
2016,06,14,12,37,14.60
2016,06,14,12,38,14.70
2016,06,14,12,39,14.80
2016,06,14,12,40,14.90
2016,06,14,12,41,14.90
2016,06,14,12,42,15.00
2016,06,14,12,43,15.00
2016,06,14,12,44,14.90
2016,06,14,12,45,14.90
2016,06,14,12,46,14.80
2016,06,14,12,47,14.80
2016,06,14,12,48,14.70
2016,06,14,12,49,14.60
2016,06,14,12,50,14.40
2016,06,14,12,51,14.20
2016,06,14,12,52,13.90
2016,06,14,12,53,13.70
2016,06,14,12,54,13.40
2016,06,14,12,55,13.30
2016,06,14,12,56,13.10
2016,06,14,12,57,12.90
2016,06,14,12,58,12.70
2016,06,14,12,59,12.60
2016,06,14,13,00,12.40
2016,06,14,13,01,12.30
2016,06,14,13,02,12.20
2016,06,14,13,03,12.20
2016,06,14,13,04,12.10
2016,06,14,13,05,12.10
2016,06,14,13,06,12.00
2016,06,14,13,07,11.90
2016,06,14,13,08,11.90
2016,06,14,13,09,11.90
2016,06,14,13,10,11.90
2016,06,14,13,11,11.90
2016,06,14,13,12,11.90
2016,06,14,13,13,11.90
2016,06,14,13,14,11.90
2016,06,14,13,15,11.90
2016,06,14,13,16,11.90
2016,06,14,13,17,11.90
2016,06,14,13,18,11.80
2016,06,14,13,19,11.90
2016,06,14,13,20,11.80
2016,06,14,13,21,11.90
2016,06,14,13,22,11.90
2016,06,14,13,23,11.90
2016,06,14,13,24,11.90
2016,06,14,13,25,11.90
2016,06,14,13,26,11.90
2016,06,14,13,27,11.90
2016,06,14,13,28,12.00
2016,06,14,13,29,12.00
2016,06,14,13,30,12.00
2016,06,14,13,31,12.10
2016,06,14,13,32,12.10
2016,06,14,13,33,12.10
2016,06,14,13,34,12.10
2016,06,14,13,35,12.10
2016,06,14,13,36,12.10
2016,06,14,13,37,12.00
2016,06,14,13,38,12.00
2016,06,14,13,39,12.00
2016,06,14,13,40,11.90
2016,06,14,13,41,11.90
2016,06,14,13,42,11.90
2016,06,14,13,43,11.90
2016,06,14,13,44,11.90
2016,06,14,13,45,11.90
2016,06,14,13,46,11.90
2016,06,14,13,47,11.90
2016,06,14,13,48,12.00
2016,06,14,13,49,12.00
2016,06,14,13,50,12.00
2016,06,14,13,51,12.10
2016,06,14,13,52,12.10
2016,06,14,13,53,12.10
2016,06,14,13,54,12.10
2016,06,14,13,55,12.20
2016,06,14,13,56,12.20
2016,06,14,13,57,12.20
2016,06,14,13,58,12.30
2016,06,14,13,59,12.40
2016,06,14,14,00,12.50
2016,06,14,14,01,12.60
2016,06,14,14,02,12.70
2016,06,14,14,03,12.70
2016,06,14,14,04,12.80
2016,06,14,14,05,12.80
2016,06,14,14,06,12.90
2016,06,14,14,07,12.90
2016,06,14,14,08,12.90
2016,06,14,14,09,12.90
2016,06,14,14,11,12.90
2016,06,14,14,12,12.90
2016,06,14,14,13,12.90
2016,06,14,14,14,12.90
2016,06,14,14,15,12.80
2016,06,14,14,16,12.80
2016,06,14,14,17,12.80
2016,06,14,14,18,12.80
2016,06,14,14,19,12.80
2016,06,14,14,20,12.80
2016,06,14,14,21,12.90
2016,06,14,14,22,12.90
2016,06,14,14,23,12.90
2016,06,14,14,24,12.90
2016,06,14,14,25,12.90
2016,06,14,14,26,12.90
2016,06,14,14,27,12.90
2016,06,14,14,28,12.80
2016,06,14,14,29,12.80
2016,06,14,14,30,12.80
2016,06,14,14,31,12.80
2016,06,14,14,32,12.80
2016,06,14,14,33,12.80
2016,06,14,14,34,12.80
2016,06,14,14,35,12.80
2016,06,14,14,36,12.90
2016,06,14,14,37,12.90
2016,06,14,14,38,12.90
2016,06,14,14,39,12.90
2016,06,14,14,40,12.90
2016,06,14,14,41,12.90
2016,06,14,14,42,12.90
2016,06,14,14,44,12.90
2016,06,14,14,45,13.00
2016,06,14,14,46,13.00
2016,06,14,14,47,13.00
2016,06,14,14,48,13.00
2016,06,14,14,49,13.10
2016,06,14,14,50,13.20
2016,06,14,14,51,13.20
2016,06,14,14,52,13.30
2016,06,14,14,53,13.30
2016,06,14,14,54,13.30
2016,06,14,14,55,13.40
2016,06,14,14,56,13.40
2016,06,14,14,57,13.40
2016,06,14,14,58,13.50
2016,06,14,14,59,13.60
2016,06,14,15,00,13.60
2016,06,14,15,01,13.70
2016,06,14,15,02,13.70
2016,06,14,15,03,13.70
2016,06,14,15,04,13.80
2016,06,14,15,05,13.80
2016,06,14,15,06,13.80
2016,06,14,15,07,13.80
2016,06,14,15,08,13.90
2016,06,14,15,09,13.90
2016,06,14,15,10,13.90
2016,06,14,15,11,13.90
2016,06,14,15,12,13.90
2016,06,14,15,13,13.90
2016,06,14,15,14,13.90
2016,06,14,15,15,14.00
2016,06,14,15,16,14.10
2016,06,14,15,17,14.10
2016,06,14,15,18,14.20
2016,06,14,15,19,14.30
2016,06,14,15,20,14.30
2016,06,14,15,21,14.40
2016,06,14,15,22,14.50
2016,06,14,15,23,14.60
2016,06,14,15,24,14.60
2016,06,14,15,25,14.60
2016,06,14,15,26,14.60
2016,06,14,15,27,14.60
2016,06,14,15,28,14.60
2016,06,14,15,29,14.70
2016,06,14,15,30,14.70
2016,06,14,15,31,14.70
2016,06,14,15,32,14.70
2016,06,14,15,33,14.70
2016,06,14,15,34,14.70
2016,06,14,15,35,14.70
2016,06,14,15,36,14.70
2016,06,14,15,37,14.70
2016,06,14,15,38,14.70
2016,06,14,20,40,12.50
2016,06,14,20,44,12.50
2016,06,14,20,45,12.40
2016,06,14,20,46,12.40
2016,06,14,20,47,12.40
2016,06,14,20,48,12.40
2016,06,14,20,49,12.40
2016,06,14,20,50,12.40
2016,06,14,20,51,12.40
2016,06,14,20,52,12.40
2016,06,14,20,53,12.40
2016,06,14,20,54,12.40
2016,06,14,20,55,12.40
2016,06,14,20,56,12.40
2016,06,14,20,57,12.40
2016,06,14,20,58,12.40
2016,06,14,20,59,12.40
2016,06,14,21,00,12.40
2016,06,14,21,01,12.30
2016,06,14,21,02,12.30
2016,06,14,21,03,12.30
2016,06,14,21,04,12.30
2016,06,14,21,05,12.20
2016,06,14,21,06,12.20
2016,06,14,21,07,12.20
2016,06,14,21,08,12.10
2016,06,14,21,09,12.10
2016,06,14,21,10,12.10
2016,06,14,21,11,12.00
2016,06,14,21,12,12.00
2016,06,14,21,13,11.90
2016,06,14,21,14,11.90
2016,06,14,21,15,11.90
2016,06,14,21,16,11.90
2016,06,14,21,17,11.90
2016,06,14,21,18,11.90
2016,06,14,21,19,11.80
2016,06,14,21,20,11.80
2016,06,14,21,21,11.80
2016,06,14,21,22,11.80
2016,06,14,21,23,11.80
2016,06,14,21,24,11.80
2016,06,14,21,25,11.80
2016,06,14,21,26,11.80
2016,06,14,21,27,11.80
2016,06,14,21,28,11.80
2016,06,14,21,29,11.70
2016,06,14,21,30,11.70
2016,06,14,21,31,11.70
2016,06,14,21,32,11.70
2016,06,14,21,33,11.70
2016,06,14,21,34,11.70
2016,06,14,21,35,11.70
2016,06,14,21,36,11.70
2016,06,14,21,37,11.70
2016,06,14,21,38,11.70
2016,06,14,21,39,11.60
2016,06,14,21,40,11.60
2016,06,14,21,41,11.60
2016,06,14,21,42,11.60
2016,06,14,21,43,11.60
2016,06,14,21,44,11.60
2016,06,14,21,45,11.60
2016,06,14,21,46,11.60
2016,06,14,21,47,11.60
2016,06,14,21,48,11.60
2016,06,14,21,49,11.60
2016,06,14,21,51,11.60
2016,06,14,21,52,11.60
2016,06,14,21,53,11.60
2016,06,14,21,54,11.50
2016,06,14,21,55,11.50
2016,06,14,21,56,11.50
2016,06,14,21,57,11.40
2016,06,14,21,58,11.40
2016,06,14,21,59,11.40
2016,06,14,22,00,11.40
2016,06,14,22,01,11.40
2016,06,14,22,02,11.30
2016,06,14,22,03,11.30
2016,06,14,22,04,11.30
2016,06,14,22,05,11.30
2016,06,14,22,06,11.30
2016,06,14,22,07,11.30
2016,06,14,22,08,11.30
2016,06,14,22,09,11.20
2016,06,14,22,10,11.20
2016,06,14,22,11,11.20
2016,06,14,22,12,11.20
2016,06,14,22,13,11.20
2016,06,14,22,14,11.20
2016,06,14,22,15,11.20
2016,06,14,22,16,11.20
2016,06,14,22,17,11.20
2016,06,14,22,18,11.20
2016,06,14,22,19,11.20
2016,06,14,22,20,11.20
2016,06,14,22,21,11.20
2016,06,14,22,22,11.20
2016,06,14,22,23,11.20
2016,06,14,22,24,11.10
2016,06,14,22,25,11.20
2016,06,14,22,26,11.10
2016,06,14,22,27,11.10
2016,06,14,22,28,11.10
2016,06,14,22,29,11.10
2016,06,14,22,30,11.10
2016,06,14,22,31,11.10
2016,06,14,22,32,11.10
2016,06,14,22,33,11.10
2016,06,14,22,34,11.10
2016,06,14,22,35,11.10
2016,06,14,22,36,11.10
2016,06,14,22,37,11.10
2016,06,14,22,38,11.00
2016,06,14,22,39,11.00
2016,06,14,22,40,11.00
2016,06,14,22,41,10.90
2016,06,14,22,42,10.90
2016,06,14,22,43,10.90
2016,06,14,22,44,10.80
2016,06,14,22,45,10.80
2016,06,14,22,46,10.80
2016,06,14,22,47,10.70
2016,06,14,22,48,10.70
2016,06,14,22,49,10.70
2016,06,14,22,50,10.70
2016,06,14,22,51,10.60
2016,06,14,22,52,10.60
2016,06,14,22,53,10.60
2016,06,14,22,54,10.60
2016,06,14,22,55,10.60
2016,06,14,22,56,10.50
2016,06,14,22,57,10.50
2016,06,14,22,58,10.50